TimeMDT,TemperatureF,Dew PointF,Humidity,Sea Level PressureIn,VisibilityMPH,Wind Direction,Wind SpeedMPH,Gust SpeedMPH,PrecipitationIn,Events,Conditions,WindDirDegrees,DateUTC
12:53 AM,48.9,30.9,50,30.14,10.0,Calm,Calm,-,N/A,,Clear,0,2013-03-20 06:53:00
1:53 AM,46.0,30.0,54,30.14,10.0,NNW,3.5,-,N/A,,Clear,340,2013-03-20 07:53:00
2:53 AM,44.1,28.9,55,30.15,10.0,North,6.9,-,N/A,,Clear,360,2013-03-20 08:53:00
3:18 AM,46.4,30.2,53,30.25,10.0,North,6.9,-,N/A,,Mostly Cloudy,350,2013-03-20 09:18:00
3:53 AM,48.0,32.0,54,30.15,10.0,North,4.6,-,N/A,,Overcast,350,2013-03-20 09:53:00
4:08 AM,48.2,33.8,58,30.25,10.0,NNE,6.9,-,N/A,,Overcast,30,2013-03-20 10:08:00
4:53 AM,48.9,34.0,56,30.15,10.0,NE,5.8,-,N/A,,Overcast,40,2013-03-20 10:53:00
5:53 AM,48.9,34.0,56,30.17,10.0,NE,6.9,-,N/A,,Overcast,40,2013-03-20 11:53:00
6:53 AM,48.9,36.0,61,30.19,10.0,ENE,6.9,-,N/A,,Overcast,60,2013-03-20 12:53:00
7:53 AM,48.0,35.1,61,30.23,10.0,ENE,5.8,-,N/A,,Overcast,70,2013-03-20 13:53:00
8:53 AM,50.0,33.8,54,30.33,10.0,NE,3.5,-,N/A,,Overcast,50,2013-03-20 14:53:00
9:53 AM,53.1,32.0,45,30.24,10.0,ENE,4.6,-,N/A,,Overcast,70,2013-03-20 15:53:00
10:53 AM,55.9,30.0,37,30.22,10.0,ESE,9.2,-,N/A,,Mostly Cloudy,120,2013-03-20 16:53:00
11:53 AM,57.0,30.9,37,30.19,10.0,SSE,5.8,18.4,N/A,,Clear,150,2013-03-20 17:53:00
12:53 PM,60.1,30.0,32,30.15,10.0,SE,10.4,19.6,N/A,,Clear,140,2013-03-20 18:53:00
1:53 PM,62.1,30.0,30,30.10,10.0,SE,9.2,17.3,N/A,,Clear,140,2013-03-20 19:53:00
2:53 PM,64.0,30.9,29,30.03,10.0,South,16.1,21.9,N/A,,Clear,170,2013-03-20 20:53:00
3:53 PM,64.9,32.0,29,29.98,10.0,South,15.0,21.9,N/A,,Clear,180,2013-03-20 21:53:00
4:53 PM,63.0,32.0,31,29.94,10.0,SSE,16.1,-,N/A,,Clear,150,2013-03-20 22:53:00
5:53 PM,63.0,34.0,34,29.92,10.0,SSE,16.1,-,N/A,,Clear,150,2013-03-20 23:53:00
6:53 PM,62.1,34.0,35,29.91,10.0,SSE,12.7,-,N/A,,Clear,160,2013-03-21 00:53:00
7:53 PM,57.9,34.0,41,29.89,10.0,SSE,8.1,-,N/A,,Clear,160,2013-03-21 01:53:00
8:53 PM,55.0,34.0,45,29.89,10.0,South,8.1,-,N/A,,Clear,170,2013-03-21 02:53:00
9:53 PM,52.0,33.1,49,29.88,10.0,South,4.6,-,N/A,,Clear,190,2013-03-21 03:53:00
10:53 PM,51.1,33.1,50,29.86,10.0,SSW,6.9,-,N/A,,Clear,200,2013-03-21 04:53:00
11:53 PM,53.1,34.0,48,29.82,10.0,South,8.1,-,N/A,,Clear,180,2013-03-21 05:53:00